Hourly Data Report for July 01, 2012

HALIFAX STANFIELD INT'L A
NOVA SCOTIA

44°52'48.060" N
63°30'00.050" W
145.40 m
8202250
71395
YHZ

Download Data

Hourly Data (July 2012)
Hourly Data Report for July 1, 2012
TIME
LST
Temp Definition
°C
Dew Point Definition
°C
Rel Hum Definition
%
Precip. Amount Definition
mm

Wind Dir Definition
10's deg

Wind Spd Definition
km/h
Visibility Definition
km
Stn Press Definition
kPa
Hmdx Definition


Wind Chill Definition


Weather Definition


00:00 17.2 13.9 81   22 17 24.1 98.73     Mainly Clear
01:00 16.3 13.6 84   21 17 24.1 98.70     Clear
02:00 16.0 13.7 86   21 17 24.1 98.70     Clear
03:00 15.9 13.8 87   23 15 24.1 98.71     Clear
04:00 15.0 13.7 92   22 11 24.1 98.75     Mainly Clear
05:00 15.5 13.9 90   22 17 24.1 98.77     Clear
06:00 17.5 14.5 83   23 13 24.1 98.85     Clear
07:00 20.5 15.8 74   23 7 24.1 98.92 25   Clear
08:00 23.6 15.7 61   27 13 24.1 98.96 28   Clear
09:00 24.9 15.4 56   30 9 24.1 98.99 29   Mainly Clear
10:00 26.0 16.6 56   23 11 24.1 99.01 31   Mainly Clear
11:00 27.5 16.7 52   23 19 24.1 99.01 33   Mainly Clear
12:00 28.5 15.4 45   25 11 24.1 98.99 33   Mainly Clear
13:00 28.9 16.5 47   21 19 24.1 98.96 34   Mainly Clear
14:00 29.6 16.6 46   28 22 24.1 98.91 35   Mainly Clear
15:00 28.7 17.2 50   29 11 24.1 98.90 34   Mainly Clear
16:00 29.3 17.0 48   30 19 24.1 98.90 35   Mainly Clear
17:00 27.3 17.8 56   24 15 24.1 98.94 33   Mainly Clear
18:00 27.6 15.1 46   32 13 24.1 98.98 32   Mainly Clear
19:00 26.2 14.9 50   33 13 24.1 99.04 30   Mainly Clear
20:00 24.0 14.1 54   31 11 24.1 99.08 27   Mainly Clear
21:00 22.0 15.3 66   17 6 24.1 99.11 26   Mainly Clear
22:00 21.6 15.9 70   17 4 24.1 99.07 26   Mainly Clear
23:00 20.7 14.2 66   3 6 24.1 99.06     Mainly Clear

Notes on Data Quality.

Legend

  • E = Estimated
  • M = Missing
  • NA = Not Available*
  • [empty] = Indicates an unobserved value
Date modified: